Showing default

LEMUR 2 ROUNDTRIPPER, 62711

Orbit data source: Space-Track

LEMUR 2 ROUNDTRIPPER, 62711 is a payload satellite owned by Spire (US) in SSO that was launched on Tue, 14 Jan 2025 UTC via an FALCON 9 launch vehicle from the Air Force Western Test Range (AFWTR). Payload-class satellites include a variety of spacecraft equipped with specific instruments for various scientific and technological missions. These include communications satellites like Starlink; space stations such as the ISS; scientific satellites like the Hubble; Earth observation satellites from companies like Planet Labs, Umbra, and HawkEye 360; GPS; miniature CubeSats for education and research; and military/defense satellites.

Loading next visibility...
Identifier
62711, 2025-009DG
Orbit
SSO
Country
Flag of USUS
Related business
Manufacturer
Spire/Glasgow
Mission
Operational Commercial Com/MetRO
Bus & Motor
CUBESAT 3U, Unknown motor
Mass
7.6 kg wet, 7.6 kg dry
Launch date (UTC)
2025-01-14 (2 years ago)
Launch vehicle
FALCON 9
Launch site
Air Force Western Test Range (AFWTR)
Object type
Payload
Rocket body
Debris
Shape & HBR
Box + 2 Pan, 0.5 m
Radar Cross Section
0.063 m², Medium (>0.1 m² and < 1m²)

Expand to show TLE details & history
Last TLE update: 18 hours ago

TLE from 18 hours ago
0 LEMUR 2 ROUNDTRIPPER
1 62711U 25009DG  26255.69060846  .00006911  00000-0  49116-3 0  9993
2 62711  97.7210 338.2968 0003530 174.9601 185.1661 15.05004691 90786
Epoch: 2026-09-12T16:34Z
TLE epoch observation values (Epoch: 2026-09-12T16:34:28.570Z)
Latitude
-0.00007°
Longitude
97.98178°
Altitude
556.989 km
Speed
7.582 km/s
True Right ascension
22h 33m 11s
True Declination
0° 00' 00"
Sunlit
Object was in full shadow at epoch
Visualization orbit readout
Latitude
Unknown
Longitude
Unknown
Altitude
Unknown
Speed
Unknown
Apparent Right ascension
Unknown
Apparent Declination
Unknown
Sunlit
N/A
Visualization observer readout
Local Sidereal Time
02:48:44
Azimuth
Unknown
Elevation
Unknown
Doppler factor
Unknown
Orbital elements
Apogee altitude
550.936 km
Perigee altitude
546.046 km
Semi-major axis
6,926.628 km
Eccentricity
0.00035
Inclination
97.721°
RAAN
338.2968°
Arg. of periapsis
174.9601°
True anomaly
185.16246°
Mean anomaly
185.1661°
Eccentric anomaly
185.16428°
Mean motion
3.76496 °/min
Orbital period
95.62 mins
BSTAR
0.00049116
Loading maneuver chart data...
Computing Atmospheric mass density...
Loading historical data...
Loading historical data...
Loading historical data...
Loading historical data...
Loading historical data...
Loading historical data...
Loading historical data...

Documentation

Showing up to 5 results
|